Hourly Weather Bolshie Gridyushki

Today, 15 June, Tuesday

Time Temperature Precipitation Wind Pressure Humidity
00:00 +14°C° 0 mm 1 mps 749 mmHg 86%
01:00 +13°C° 0 mm 1 mps 749 mmHg 87%
02:00 +13°C° 0 mm 2 mps 749 mmHg 88%
03:00 +13°C° 0 mm 2 mps 749 mmHg 87%
04:00 +13°C° 0 mm 2 mps 749 mmHg 85%
05:00 +13°C° 0 mm 2 mps 749 mmHg 83%
06:00 +15°C° 0 mm 2 mps 749 mmHg 78%
07:00 +16°C° 0 mm 3 mps 748 mmHg 72%
08:00 +18°C° 0 mm 3 mps 749 mmHg 67%
09:00 +19°C° 0 mm 3 mps 749 mmHg 64%
10:00 +20°C° 0 mm 3 mps 748 mmHg 62%
11:00 +21°C° 0 mm 4 mps 748 mmHg 59%
12:00 +22°C° 0 mm 4 mps 748 mmHg 59%
13:00 +22°C° 0 mm 4 mps 748 mmHg 59%
14:00 +23°C° 0 mm 4 mps 747 mmHg 58%
15:00 +22°C° 0.3 mm 4 mps 747 mmHg 66%
16:00 +21°C° 0.3 mm 4 mps 747 mmHg 73%
17:00 +21°C° 0.3 mm 4 mps 747 mmHg 80%
18:00 +20°C° 0.2 mm 3 mps 747 mmHg 84%
19:00 +19°C° 0.2 mm 3 mps 747 mmHg 88%
20:00 +18°C° 0.2 mm 2 mps 747 mmHg 92%
21:00 +17°C° 0 mm 2 mps 747 mmHg 93%
22:00 +16°C° 0 mm 2 mps 747 mmHg 94%
23:00 +15°C° 0 mm 2 mps 747 mmHg 95%

Tomorrow, 16 June, Wednesday

Time Temperature Precipitation Wind Pressure Humidity
00:00 +12°C° 0 mm 3 mps 747 mmHg 94%
01:00 +11°C° 0 mm 3 mps 748 mmHg 94%
02:00 +10°C° 0 mm 3 mps 748 mmHg 94%
03:00 +9°C° 0 mm 3 mps 749 mmHg 92%
04:00 +9°C° 0 mm 3 mps 749 mmHg 91%
05:00 +9°C° 0 mm 3 mps 749 mmHg 90%
06:00 +11°C° 0 mm 3 mps 750 mmHg 84%
07:00 +12°C° 0 mm 3 mps 750 mmHg 78%
08:00 +14°C° 0 mm 3 mps 750 mmHg 73%
09:00 +16°C° 0 mm 2 mps 750 mmHg 66%
10:00 +18°C° 0 mm 2 mps 751 mmHg 60%
11:00 +19°C° 0 mm 2 mps 751 mmHg 54%
12:00 +20°C° 0 mm 2 mps 751 mmHg 52%
13:00 +20°C° 0 mm 2 mps 751 mmHg 49%
14:00 +21°C° 0 mm 2 mps 751 mmHg 47%
15:00 +21°C° 0 mm 2 mps 751 mmHg 48%
16:00 +21°C° 0 mm 2 mps 751 mmHg 49%
17:00 +21°C° 0 mm 2 mps 751 mmHg 50%
18:00 +20°C° 0 mm 2 mps 751 mmHg 56%
19:00 +18°C° 0 mm 2 mps 751 mmHg 63%
20:00 +18°C° 0 mm 1 mps 751 mmHg 69%
21:00 +16°C° 0 mm 1 mps 752 mmHg 71%
22:00 +14°C° 0 mm 1 mps 752 mmHg 73%
23:00 +13°C° 0 mm 1 mps 752 mmHg 74%

Day after tomorrow, 17 June, Thursday

Time Temperature Precipitation Wind Pressure Humidity
00:00 +13°C° 0 mm 1 mps 753 mmHg 76%
01:00 +12°C° 0 mm 1 mps 753 mmHg 78%
02:00 +12°C° 0 mm 1 mps 753 mmHg 80%
03:00 +12°C° 0 mm 1 mps 753 mmHg 80%
04:00 +13°C° 0 mm 1 mps 754 mmHg 79%
05:00 +13°C° 0 mm 1 mps 754 mmHg 79%
06:00 +15°C° 0 mm 1 mps 754 mmHg 73%
07:00 +18°C° 0 mm 1 mps 754 mmHg 67%
08:00 +20°C° 0 mm 1 mps 755 mmHg 61%
09:00 +21°C° 0 mm 1 mps 755 mmHg 57%
10:00 +22°C° 0 mm 1 mps 755 mmHg 53%
11:00 +24°C° 0 mm 1 mps 755 mmHg 48%
12:00 +24°C° 0 mm 1 mps 755 mmHg 46%
13:00 +25°C° 0 mm 1 mps 755 mmHg 45%
14:00 +26°C° 0 mm 1 mps 755 mmHg 43%
15:00 +26°C° 0 mm 1 mps 755 mmHg 45%
16:00 +26°C° 0 mm 1 mps 755 mmHg 47%
17:00 +26°C° 0 mm 1 mps 754 mmHg 48%
18:00 +24°C° 0 mm 1 mps 755 mmHg 57%
19:00 +22°C° 0 mm 1 mps 755 mmHg 65%
20:00 +19°C° 0 mm 2 mps 755 mmHg 73%
21:00 +18°C° 0 mm 2 mps 755 mmHg 77%
22:00 +17°C° 0 mm 2 mps 755 mmHg 80%
23:00 +16°C° 0 mm 2 mps 755 mmHg 84%

18 June, Friday

Time Temperature Precipitation Wind Pressure Humidity
00:00 +16°C° 0 mm 2 mps 755 mmHg 86%
01:00 +15°C° 0 mm 2 mps 755 mmHg 88%
02:00 +15°C° 0 mm 2 mps 755 mmHg 89%
03:00 +15°C° 0 mm 2 mps 755 mmHg 89%
04:00 +15°C° 0 mm 2 mps 755 mmHg 88%
05:00 +15°C° 0 mm 2 mps 755 mmHg 87%
06:00 +17°C° 0 mm 2 mps 756 mmHg 81%
07:00 +19°C° 0 mm 3 mps 756 mmHg 75%
08:00 +21°C° 0 mm 3 mps 756 mmHg 68%
09:00 +22°C° 0 mm 3 mps 756 mmHg 63%
10:00 +25°C° 0 mm 3 mps 756 mmHg 58%
11:00 +26°C° 0 mm 3 mps 756 mmHg 53%
12:00 +26°C° 0 mm 3 mps 755 mmHg 51%
13:00 +27°C° 0 mm 3 mps 755 mmHg 49%
14:00 +28°C° 0 mm 3 mps 755 mmHg 48%
15:00 +27°C° 0 mm 3 mps 755 mmHg 51%
16:00 +27°C° 0 mm 3 mps 755 mmHg 55%
17:00 +27°C° 0 mm 2 mps 754 mmHg 59%
18:00 +25°C° 0 mm 2 mps 754 mmHg 65%
19:00 +24°C° 0 mm 2 mps 754 mmHg 72%
20:00 +21°C° 0 mm 2 mps 754 mmHg 79%
21:00 +20°C° 0 mm 2 mps 755 mmHg 81%
22:00 +18°C° 0 mm 2 mps 755 mmHg 84%
23:00 +17°C° 0 mm 3 mps 755 mmHg 86%

19 June, Saturday

Time Temperature Precipitation Wind Pressure Humidity
00:00 +16°C° 0 mm 2 mps 755 mmHg 87%
01:00 +16°C° 0 mm 2 mps 755 mmHg 87%
02:00 +15°C° 0 mm 2 mps 755 mmHg 88%
03:00 +16°C° 0 mm 2 mps 755 mmHg 88%
04:00 +16°C° 0 mm 2 mps 755 mmHg 88%
05:00 +16°C° 0 mm 2 mps 756 mmHg 89%
06:00 +18°C° 0 mm 2 mps 755 mmHg 83%
07:00 +20°C° 0 mm 2 mps 755 mmHg 77%
08:00 +23°C° 0 mm 2 mps 755 mmHg 72%
09:00 +24°C° 0 mm 2 mps 755 mmHg 67%
10:00 +25°C° 0 mm 3 mps 755 mmHg 62%
11:00 +27°C° 0 mm 3 mps 755 mmHg 58%
12:00 +27°C° 0 mm 3 mps 755 mmHg 56%
13:00 +28°C° 0 mm 2 mps 755 mmHg 54%
14:00 +28°C° 0 mm 2 mps 755 mmHg 51%
15:00 +28°C° 0 mm 2 mps 754 mmHg 54%
16:00 +28°C° 0 mm 2 mps 754 mmHg 56%
17:00 +28°C° 0 mm 2 mps 754 mmHg 58%
18:00 +27°C° 0 mm 2 mps 754 mmHg 65%
19:00 +25°C° 0 mm 2 mps 754 mmHg 71%
20:00 +23°C° 0 mm 2 mps 754 mmHg 78%
21:00 +21°C° 0 mm 2 mps 754 mmHg 82%
22:00 +20°C° 0 mm 2 mps 754 mmHg 85%
23:00 +19°C° 0 mm 2 mps 754 mmHg 89%

20 June, Sunday

Time Temperature Precipitation Wind Pressure Humidity
00:00 +18°C° 0 mm 2 mps 754 mmHg 90%
01:00 +18°C° 0 mm 2 mps 754 mmHg 91%
02:00 +17°C° 0 mm 2 mps 754 mmHg 92%
03:00 +17°C° 0 mm 2 mps 754 mmHg 91%
04:00 +17°C° 0 mm 2 mps 754 mmHg 90%
05:00 +18°C° 0 mm 2 mps 754 mmHg 89%
06:00 +19°C° 0 mm 2 mps 754 mmHg 83%
07:00 +21°C° 0 mm 2 mps 754 mmHg 77%
08:00 +24°C° 0 mm 2 mps 754 mmHg 71%
09:00 +25°C° 0 mm 3 mps 754 mmHg 66%
10:00 +26°C° 0 mm 3 mps 754 mmHg 61%
11:00 +27°C° 0 mm 3 mps 754 mmHg 57%
12:00 +28°C° 0 mm 3 mps 753 mmHg 54%
13:00 +28°C° 0 mm 2 mps 753 mmHg 52%
14:00 +29°C° 0 mm 2 mps 753 mmHg 49%
15:00 +29°C° 0 mm 2 mps 753 mmHg 52%
16:00 +28°C° 0 mm 2 mps 752 mmHg 54%
17:00 +28°C° 0 mm 2 mps 752 mmHg 56%
18:00 +27°C° 0 mm 2 mps 752 mmHg 63%
19:00 +25°C° 0 mm 1 mps 752 mmHg 69%
20:00 +24°C° 0 mm 1 mps 752 mmHg 75%
21:00 +23°C° 0 mm 1 mps 752 mmHg 78%
22:00 +20°C° 0 mm 2 mps 752 mmHg 81%
23:00 +19°C° 0 mm 2 mps 752 mmHg 84%
Show more